TimeEST,TemperatureF,Dew PointF,Humidity,Sea Level PressureIn,VisibilityMPH,Wind Direction,Wind SpeedMPH,Gust SpeedMPH,PrecipitationIn,Events,Conditions,WindDirDegrees,DateUTC
12:53 AM,35.1,34.0,96,29.96,8.0,WNW,4.6,-,N/A,,Overcast,290,2013-03-01 05:53:00
1:27 AM,35.6,33.8,93,29.95,9.0,WNW,3.5,-,N/A,,Overcast,290,2013-03-01 06:27:00
1:34 AM,35.6,33.8,93,29.95,9.0,WNW,3.5,-,N/A,,Overcast,290,2013-03-01 06:34:00
1:53 AM,35.1,34.0,96,29.96,9.0,West,3.5,-,N/A,,Overcast,280,2013-03-01 06:53:00
2:40 AM,35.6,33.8,93,29.94,9.0,WNW,3.5,-,N/A,,Overcast,290,2013-03-01 07:40:00
2:53 AM,35.1,33.1,92,29.96,8.0,Calm,Calm,-,N/A,,Overcast,0,2013-03-01 07:53:00
3:53 AM,34.0,33.1,96,29.94,9.0,West,3.5,-,N/A,,Overcast,280,2013-03-01 08:53:00
4:53 AM,34.0,32.0,92,29.96,10.0,WNW,4.6,-,N/A,,Overcast,290,2013-03-01 09:53:00
5:53 AM,33.1,30.0,89,29.97,10.0,NW,5.8,-,N/A,,Overcast,310,2013-03-01 10:53:00
6:53 AM,33.1,30.0,89,29.97,10.0,WNW,4.6,-,N/A,,Overcast,300,2013-03-01 11:53:00
7:53 AM,33.1,30.9,92,29.98,10.0,West,4.6,-,N/A,,Overcast,280,2013-03-01 12:53:00
8:07 AM,33.8,30.2,87,29.97,9.0,WNW,5.8,-,N/A,,Overcast,300,2013-03-01 13:07:00
8:33 AM,33.8,30.2,87,29.98,10.0,WNW,5.8,-,N/A,,Overcast,300,2013-03-01 13:33:00
8:51 AM,33.8,30.2,87,29.98,1.8,WNW,4.6,-,0.00,Snow,Light Snow,300,2013-03-01 13:51:00
8:53 AM,33.1,30.9,92,30.00,1.8,WNW,5.8,-,0.00,Snow,Light Snow,300,2013-03-01 13:53:00
9:21 AM,33.8,30.2,87,29.99,1.2,WNW,4.6,-,0.01,Snow,Light Snow,290,2013-03-01 14:21:00
9:30 AM,33.8,30.2,87,29.99,1.2,WNW,5.8,-,0.01,Snow,Light Snow,290,2013-03-01 14:30:00
9:53 AM,33.1,32.0,96,30.01,1.5,WNW,4.6,-,0.01,Snow,Light Snow,300,2013-03-01 14:53:00
10:22 AM,33.8,32.0,93,29.99,2.0,NW,5.8,-,0.00,Snow,Light Snow,310,2013-03-01 15:22:00
10:30 AM,33.8,32.0,93,29.99,3.0,NW,5.8,-,0.00,Snow,Light Snow,320,2013-03-01 15:30:00
10:53 AM,35.1,32.0,89,30.01,5.0,WNW,4.6,-,0.00,Snow,Light Snow,300,2013-03-01 15:53:00
11:18 AM,35.6,32.0,87,29.99,5.0,NW,6.9,-,0.00,Snow,Light Snow,310,2013-03-01 16:18:00
11:53 AM,35.1,30.9,85,30.01,6.0,NW,6.9,-,0.00,Snow,Light Snow,320,2013-03-01 16:53:00
12:00 PM,35.6,32.0,87,29.99,5.0,NW,4.6,-,0.00,Snow,Light Snow,320,2013-03-01 17:00:00
12:07 PM,35.6,32.0,87,29.99,6.0,NNW,4.6,-,0.00,Snow,Light Snow,330,2013-03-01 17:07:00
12:53 PM,36.0,30.9,82,30.00,10.0,Variable,3.5,-,0.01,,Overcast,0,2013-03-01 17:53:00
1:19 PM,35.6,32.0,87,29.98,6.0,NW,4.6,-,0.00,Snow,Light Snow,320,2013-03-01 18:19:00
1:26 PM,35.6,32.0,87,29.97,4.0,NNW,4.6,-,0.00,Snow,Light Snow,330,2013-03-01 18:26:00
1:32 PM,33.8,32.0,93,29.97,1.8,NW,5.8,-,0.00,Snow,Light Snow,320,2013-03-01 18:32:00
1:53 PM,34.0,32.0,92,29.98,1.8,WNW,6.9,-,0.01,Snow,Light Snow,300,2013-03-01 18:53:00
2:04 PM,33.8,30.2,87,29.97,2.0,NW,4.6,-,0.00,Snow,Light Snow,310,2013-03-01 19:04:00
2:14 PM,35.6,32.0,87,29.96,4.0,NW,5.8,-,0.00,Snow,Light Snow,320,2013-03-01 19:14:00
2:29 PM,35.6,33.8,93,29.96,8.0,NW,4.6,-,0.00,,Overcast,310,2013-03-01 19:29:00
2:53 PM,37.0,32.0,82,29.97,10.0,West,4.6,-,0.00,,Overcast,280,2013-03-01 19:53:00
3:04 PM,37.4,32.0,81,29.95,10.0,NW,8.1,-,N/A,,Overcast,320,2013-03-01 20:04:00
3:14 PM,37.4,30.2,75,29.95,10.0,WNW,4.6,-,N/A,,Overcast,300,2013-03-01 20:14:00
4:16 PM,37.4,32.0,81,29.96,10.0,Variable,6.9,-,N/A,,Overcast,0,2013-03-01 21:16:00
4:53 PM,36.0,30.9,82,29.98,10.0,NW,6.9,-,N/A,,Overcast,320,2013-03-01 21:53:00
5:34 PM,35.6,32.0,87,29.97,8.0,NW,8.1,-,0.00,Snow,Light Snow,320,2013-03-01 22:34:00
5:53 PM,35.1,32.0,89,29.99,5.0,NNW,8.1,-,0.01,Snow,Light Snow,330,2013-03-01 22:53:00
5:58 PM,33.8,32.0,93,29.97,4.0,NW,5.8,-,0.00,Snow,Light Snow,310,2013-03-01 22:58:00
6:06 PM,33.8,32.0,93,29.98,6.0,West,3.5,-,0.00,Snow,Light Snow,280,2013-03-01 23:06:00
6:21 PM,33.8,32.0,93,29.98,9.0,WNW,4.6,-,0.00,,Overcast,290,2013-03-01 23:21:00
6:53 PM,34.0,32.0,92,30.01,9.0,West,3.5,-,0.00,,Overcast,280,2013-03-01 23:53:00
7:53 PM,34.0,32.0,92,30.01,5.0,NW,3.5,-,0.00,Snow,Light Snow,310,2013-03-02 00:53:00
8:14 PM,33.8,33.8,100,29.99,6.0,NW,3.5,-,0.00,Snow,Light Snow,310,2013-03-02 01:14:00
8:38 PM,33.8,33.8,100,29.99,5.0,NW,6.9,-,0.00,Snow,Light Snow,320,2013-03-02 01:38:00
8:53 PM,34.0,33.1,96,30.01,4.0,North,4.6,-,0.00,Snow,Light Snow,350,2013-03-02 01:53:00
9:33 PM,33.8,32.0,93,30.00,3.0,North,3.5,-,0.00,Snow,Light Snow,350,2013-03-02 02:33:00
9:53 PM,33.1,32.0,96,30.02,4.0,NNE,4.6,-,0.01,Snow,Light Snow,20,2013-03-02 02:53:00
10:09 PM,33.8,32.0,93,30.00,5.0,North,4.6,-,0.00,Snow,Light Snow,10,2013-03-02 03:09:00
10:53 PM,33.1,32.0,96,30.02,4.0,North,3.5,-,0.00,Snow,Light Snow,10,2013-03-02 03:53:00
11:07 PM,33.8,32.0,93,30.00,2.5,NNE,8.1,-,0.00,Snow,Light Snow,30,2013-03-02 04:07:00
11:21 PM,32.0,30.2,93,30.00,2.0,NE,6.9,-,0.00,Snow,Light Snow,40,2013-03-02 04:21:00
11:40 PM,32.0,30.2,93,30.00,3.0,NE,3.5,-,0.00,Snow,Light Snow,40,2013-03-02 04:40:00
11:53 PM,32.0,30.9,96,30.03,4.0,NNE,5.8,-,0.00,Snow,Light Snow,20,2013-03-02 04:53:00